Search your local weather  

 

Hazardous Weather Conditions

No active alerts for CHICAGO, ILLINOIS

Current Conditions: CHICAGO, ILLINOIS

Thunderstorm in Vicinity


62.0 F

Last Updated on May 21 2022, 2:52 am CDT
Humidity: 80%
Wind Speed: NW 4.6 mph
Barometer 29.83 in
Dewpoint: 55.9 F
Visibility: 10.00 mi
Precip: --
Heat Index: NA
Wind Chill: 62 F
Current conditions at:

Chicago / Wheeling, Pal-Waukee Airport, IL (KPWK)

Lat: 42.12083 Lon: -87.90472

Local Radar Image active severe weather and emergency alerts image image weather storm and storm spotter reports image weather observation monitoring service image
Local
Radar
Active
Alerts
Storm Reports Weather
Monitoring

5 Day Forecast for CHICAGO, ILLINOIS (60601)

Saturday

T-storms Likely

High 58 °F
Saturday
Night
Rain Likely
Low 50 °F
Sunday

Mostly Cloudy

High 56 °F
Sunday
Night
Partly Cloudy

Low 48 °F
Monday

Partly Sunny

High 55 °F
Monday
Night
Chance of Rain
Low 51 °F
Tuesday

Chance of Rain Showers
High 56 °F
Tuesday
Night
Rain Likely
Low 52 °F
Wednesday

Chance of Rain Showers
High 56 °F

Sign-up For Email & Text Message Weather Alert Notification Services



Advertise Here

Observation History for CHICAGO, ILLINOIS


Time Wind
(mph)
Vis
(mi)
Weather Precip (in) Temperature (F) Relative
Humidity
Wind
Chill
(F)
Heat
Index
(F)
Pressure
Air Dwpt altimeter
(in)
sea level
(mb)
2:52 am CDT NW 4.6 10.00 Thunderstorm in Vicinity -- 62.0 55.9 80% 62 NA 29.83 1009.7
1:52 am CDT N 0.0 10.00 Overcast Trace 61.0 57.0 87% NA NA 29.79 1008.3
12:52 am CDT N 0.0 10.00 Light Rain 00.07 62.0 57.9 86% NA NA 29.79 1008.4
11:52 pm CDT 3.5 2.00 Thunderstorm Heavy Rain Fog/Mist -- 61.0 57.9 90% NA NA 29.80 1008.6
10:52 pm CDT N 6.9 10.00 Thunderstorm Light Rain -- 63.0 57.9 84% 63 NA 29.76 1007.3
9:52 pm CDT N 11.5 10.00 Overcast -- 66.0 54.0 65% NA NA 29.70 1005.1
8:52 pm CDT N 8.1 10.00 Overcast -- 68.0 57.9 70% NA NA 29.67 1004.3
7:52 pm CDT N 5.8 10.00 Mostly Cloudy -- 69.0 59.0 70% NA NA 29.64 1003.2
6:52 pm CDT NW 11.5 10.00 Mostly Cloudy -- 73.0 64.0 74% NA NA 29.59 1001.7
4:52 pm CDT SW 12.7 G 28.8 10.00 Mostly Cloudy -- 86.0 66.0 51% NA 88 29.50 998.3
3:52 pm CDT SW 19.6 G 29.9 10.00 A Few Clouds -- 86.0 66.9 53% NA 89 29.47 997.6
2:52 pm CDT S 12.7 G 27.6 10.00 Mostly Cloudy -- 84.0 66.0 55% NA 86 29.48 997.6
1:52 pm CDT S 13.8 G 33.4 10.00 Overcast -- 81.0 66.0 61% NA 83 29.45 996.8
10:52 am CDT S 15.0 10.00 Partly Cloudy -- 81.0 66.9 62% NA 83 29.44 996.2
9:52 am CDT S 17.3 G 27.6 10.00 A Few Clouds -- 79.0 66.0 65% NA NA 29.44 996.1
8:52 am CDT S 15.0 10.00 Overcast -- 76.0 64.9 69% NA NA 29.46 997.1
7:52 am CDT S 10.4 G 24.2 10.00 Fair -- 72.0 64.0 76% NA NA 29.44 996.5
6:52 am CDT S 9.2 10.00 Fair -- 69.0 62.1 78% NA NA 29.45 996.8
4:52 am CDT S 4.6 10.00 Fair -- 65.0 60.1 84% NA NA 29.44 996.4
3:52 am CDT S 9.2 10.00 Fair -- 67.0 60.1 79% NA NA 29.45 996.8

Regional Weather Observation

Chicago, Chicago-OHare International Airport, IL (KORD)

Light Rain
60.0 F

Chicago/Waukegan Regional Airport, IL (KUGN)

Mostly Cloudy
58.0 F

Chicago, Chicago Midway Airport, IL (KMDW)

Overcast
62.0 F

Schaumburg Regional Airport, IL (K06C)

Mostly Cloudy
58.0 F

Kenosha, Kenosha Regional Airport, WI (KENW)

Partly Cloudy
56.0 F

Chicago / West Chicago, Dupage Airport, IL (KDPA)

Thunderstorm Light Rain
59.0 F

Advertise Here


Advertise Here